Location: ????????
(55.0559°N, 39.1270°E)
Time: 08:51:46
(UTC+00:00)

Cosmos 1980 - Pass Details

Date: 15 November 2025
Orbit: 836 x 847 km, 71.0° (Epoch: 14 December)

Event Time Altitude Azimuth Distance (km) Brightness Sun altitude
Exits shadow 03:22:27 16° 263° (W) 2,064 5.2 -13.1°
Maximum altitude 03:26:21 35° 321° (NW) 1,346 4.4 -12.5°
Drops below altitude 10° 03:31:32 10° 27° (NNE) 2,480 6.3 -11.8°
Sets 03:34:14 0° 36° (NE) 3,419 7.1 -11.5°
